Simultaneous Nadir Overpasses (SNOs) Predictions

Prediction of SNOs between AQUA and METOP-B Satellite Orbit:

Table of predicted SNOs for the next 14.0 days since TLE Epoch: 11/14/2025
Index Date (AQUA) Time (AQUA) Lat,Lon (AQUA) SZA (AQUA ) Date (METOP-B) Time (METOP-B) Lat,Lon (METOP-B) SZA (METOP-B ) Distance(km) Time Diff (sec)
1 11/16/2025 04:02:40 -78.07, -59.59 83.17 11/16/2025 04:02:37 -78.08, -59.55 83.17 0.90 3
2 11/16/2025 04:52:04 78.35, 106.72 97.09 11/16/2025 04:53:11 78.36, 109.28 97.15 57.51 67
3 11/18/2025 15:11:14 -78.05, 133.46 82.60 11/18/2025 15:10:25 -78.08, 133.50 82.57 3.53 49
4 11/18/2025 16:00:33 78.11, -59.16 97.47 11/18/2025 16:01:06 78.08, -59.17 97.44 3.50 33
5 11/21/2025 03:09:06 78.07, 133.96 97.99 11/21/2025 03:08:55 78.07, 133.83 97.99 2.97 11
6 11/21/2025 03:58:24 -78.13, -58.62 81.96 11/21/2025 03:59:35 -78.11, -58.63 81.97 1.55 71
7 11/23/2025 14:17:38 78.06, -33.04 98.50 11/23/2025 14:16:43 78.09, -33.01 98.53 3.84 55
8 11/23/2025 15:06:56 -78.11, 134.38 81.45 11/23/2025 15:07:24 -78.09, 134.32 81.47 2.70 28
9 11/26/2025 02:15:26 -78.09, -32.54 80.99 11/26/2025 02:15:12 -78.10, -32.58 80.97 2.26 14
10 11/26/2025 03:04:45 78.15, 134.81 99.08 11/26/2025 03:05:52 78.15, 134.96 99.08 3.64 67
11 11/28/2025 13:23:55 -78.08, 160.42 80.55 11/28/2025 13:23:00 -78.10, 160.47 80.53 2.46 55



Historial Predications of SNOs between AQUA and METOP-B
